EW1296 Weather Reports


time (UTC)temp
C
wind
direction
speed
KPH
gust
KPH
rain 1hr
cm
rain 24hr
cm
rain mn
cm
humidity
%
barometer
mb
20260906073017 21 90 1.6 8.0 0.00 0.00 0.00 80 1012.1
20260906072538 21 68 1.6 4.8 0.00 0.00 0.00 80 1012.2
20260906072017 21 68 3.2 8.0 0.00 0.00 0.00 79 1012.1
20260906071518 21 90 1.6 4.8 0.00 0.00 0.00 78 1012.1
20260906071017 21 90 1.6 4.8 0.00 0.00 0.00 77 1012.0
20260906070517 21 90 1.6 6.4 0.00 0.00 0.00 76 1012.0
20260906070017 21 113 1.6 8.0 0.00 0.00 0.00 75 1012.0
20260906065517 21 23 3.2 6.4 0.00 0.00 0.00 75 1011.9
20260906065017 21 23 3.2 6.4 0.00 0.00 0.00 74 1011.9
20260906064518 21 68 1.6 4.8 0.00 0.00 0.00 73 1012.0
20260906064017 21 23 1.6 4.8 0.00 0.00 0.00 72 1012.0
20260906063517 21 68 1.6 11.3 0.00 0.00 0.00 72 1012.0
20260906063017 22 68 1.6 6.4 0.00 0.00 0.00 72 1012.0
20260906062517 22 113 1.6 6.4 0.00 0.00 0.00 72 1012.1
20260906062017 22 45 3.2 6.4 0.00 0.00 0.00 71 1012.1
20260906061516 22 68 1.6 6.4 0.00 0.00 0.00 71 1012.2
20260906061017 22 68 3.2 4.8 0.00 0.00 0.00 71 1012.2
20260906060517 22 90 1.6 4.8 0.00 0.00 0.00 71 1012.2
20260906060057 22 68 1.6 6.4 0.00 0.00 0.00 72 1012.4
20260906055517 22 68 1.6 4.8 0.00 0.00 0.00 72 1012.4
20260906055017 22 0.0 1.6 0.00 0.00 0.00 72 1012.5
20260906054517 22 0.0 3.2 0.00 0.00 0.00 72 1012.4
20260906054017 22 0.0 4.8 0.00 0.00 0.00 72 1012.4
20260906053517 22 0.0 3.2 0.00 0.00 0.00 72 1012.5
20260906053017 22 68 1.6 3.2 0.00 0.00 0.00 72 1012.4
20260906052517 22 68 1.6 6.4 0.00 0.00 0.00 71 1012.4
20260906052016 22 68 1.6 3.2 0.00 0.00 0.00 71 1012.5
20260906051537 22 90 1.6 8.0 0.00 0.00 0.00 71 1012.5
20260906051017 22 45 1.6 6.4 0.00 0.00 0.00 71 1012.5
20260906050538 22 68 1.6 6.4 0.00 0.00 0.00 71 1012.4
20260906050017 22 45 1.6 4.8 0.00 0.00 0.00 71 1012.5
20260906045517 22 68 1.6 6.4 0.00 0.00 0.00 71 1012.6
20260906045016 22 45 3.2 8.0 0.00 0.00 0.00 71 1012.5
20260906044517 22 23 1.6 4.8 0.00 0.00 0.00 71 1012.6
20260906044017 22 23 1.6 8.0 0.00 0.00 0.00 71 1012.6
20260906043517 22 45 3.2 8.0 0.00 0.00 0.00 71 1012.5
20260906043016 22 45 3.2 8.0 0.00 0.00 0.00 71 1012.4
20260906042539 22 45 3.2 4.8 0.00 0.00 0.00 70 1012.4
20260906042018 22 90 3.2 6.4 0.00 0.00 0.00 70 1012.4
20260906041517 22 45 3.2 8.0 0.00 0.00 0.00 70 1012.4
20260906041017 22 45 4.8 11.3 0.00 0.00 0.00 69 1012.4
20260906040516 22 68 4.8 14.5 0.00 0.00 0.00 68 1012.5
20260906040018 22 23 3.2 9.7 0.00 0.00 0.00 68 1012.5
20260906035517 22 23 3.2 8.0 0.00 0.00 0.00 67 1012.5
20260906035018 22 45 1.6 6.4 0.00 0.00 0.00 67 1012.5
20260906034517 22 68 4.8 11.3 0.00 0.00 0.00 67 1012.5
20260906034037 22 45 3.2 9.7 0.00 0.00 0.00 66 1012.4
20260906033517 22 45 3.2 8.0 0.00 0.00 0.00 66 1012.4
20260906033017 23 45 4.8 11.3 0.00 0.00 0.00 65 1012.3
20260906032539 23 23 3.2 12.9 0.00 0.00 0.00 65 1012.3
20260906032017 23 23 3.2 6.4 0.00 0.00 0.00 65 1012.2
20260906031518 23 68 1.6 4.8 0.00 0.00 0.00 64 1012.2
20260906031018 23 90 3.2 8.0 0.00 0.00 0.00 64 1012.1
20260906030518 23 90 1.6 6.4 0.00 0.00 0.00 64 1012.1
20260906030037 23 45 3.2 9.7 0.00 0.00 0.00 63 1012.1
20260906025517 23 68 6.4 17.7 0.00 0.00 0.00 63 1012.1
20260906025017 23 23 3.2 12.9 0.00 0.00 0.00 63 1012.1
20260906024517 23 45 3.2 9.7 0.00 0.00 0.00 63 1012.1
20260906024017 23 0 3.2 8.0 0.00 0.00 0.00 64 1012.0
20260906023537 23 45 3.2 12.9 0.00 0.00 0.00 64 1012.0
20260906023017 23 338 3.2 8.0 0.00 0.00 0.00 64 1012.0
20260906022517 23 45 1.6 3.2 0.00 0.00 0.00 62 1012.0
20260906022017 23 45 1.6 4.8 0.00 0.00 0.00 62 1011.9
20260906021518 23 45 1.6 6.4 0.00 0.00 0.00 61 1012.0
20260906021017 24 90 3.2 6.4 0.00 0.00 0.00 61 1012.0
20260906020517 24 45 3.2 6.4 0.00 0.00 0.00 61 1012.0
20260906020017 24 23 3.2 8.0 0.00 0.00 0.00 61 1011.9
20260906015517 24 0 3.2 6.4 0.00 0.00 0.00 60 1011.8
20260906015037 24 45 3.2 8.0 0.00 0.00 0.00 60 1011.7
20260906014517 24 45 4.8 14.5 0.00 0.00 0.00 59 1011.7
20260906014017 24 23 3.2 9.7 0.00 0.00 0.00 59 1011.7
20260906013519 24 45 3.2 8.0 0.00 0.00 0.00 59 1011.7
20260906013037 24 338 3.2 8.0 0.00 0.00 0.00 57 1011.6
20260906012517 24 45 3.2 14.5 0.00 0.00 0.00 56 1011.6
20260906012017 24 45 3.2 8.0 0.00 0.00 0.00 57 1011.6
20260906011518 24 23 3.2 12.9 0.00 0.00 0.00 57 1011.6
20260906011018 24 338 4.8 17.7 0.00 0.00 0.00 58 1011.5
20260906010517 25 45 4.8 12.9 0.00 0.00 0.00 59 1011.5
20260906010017 25 338 4.8 12.9 0.00 0.00 0.00 60 1011.5
20260906005516 25 338 6.4 16.1 0.00 0.00 0.00 60 1011.4
20260906005018 25 338 4.8 12.9 0.00 0.00 0.00 59 1011.4
20260906004516 25 0 3.2 12.9 0.00 0.00 0.00 58 1011.3
20260906004016 25 0 3.2 6.4 0.00 0.00 0.00 58 1011.3
20260906003517 25 338 3.2 8.0 0.00 0.00 0.00 58 1011.2
20260906003017 25 45 3.2 9.7 0.00 0.00 0.00 58 1011.1
20260906002518 25 0 1.6 6.4 0.00 0.00 0.00 58 1011.1
20260906002018 25 45 3.2 12.9 0.00 0.00 0.00 57 1011.0
20260906001537 25 338 3.2 11.3 0.00 0.00 0.00 57 1010.8
20260906001017 25 0 4.8 12.9 0.00 0.00 0.00 58 1010.7
20260906000517 25 338 3.2 8.0 0.00 0.00 0.00 57 1010.7
20260906000017 25 23 3.2 8.0 0.00 0.00 0.00 57 1010.7
20260905235537 25 315 4.8 14.5 0.00 0.00 0.00 58 1010.6
20260905235016 25 315 4.8 12.9 0.00 0.00 0.00 58 1010.6
20260905234518 25 338 3.2 8.0 0.00 0.00 0.00 57 1010.5
20260905234016 25 338 3.2 11.3 0.00 0.00 0.00 56 1010.5
20260905233517 25 338 4.8 14.5 0.00 0.00 0.00 55 1010.5
20260905233038 25 338 4.8 11.3 0.00 0.00 0.00 55 1010.5
20260905232537 26 0 4.8 12.9 0.00 0.00 0.00 54 1010.5
20260905232016 26 0 4.8 12.9 0.00 0.00 0.00 53 1010.5
20260905231537 26 338 3.2 8.0 0.00 0.00 0.00 53 1010.5
20260905231017 26 0 4.8 14.5 0.00 0.00 0.00 52 1010.6
20260905230517 26 338 3.2 9.7 0.00 0.00 0.00 51 1010.6
20260905230017 26 45 4.8 12.9 0.00 0.00 0.00 51 1010.5
20260905225517 26 315 4.8 14.5 0.00 0.00 0.00 51 1010.4
20260905225016 26 0 4.8 16.1 0.00 0.00 0.00 50 1010.4
20260905224518 26 338 4.8 16.1 0.00 0.00 0.00 49 1010.3
20260905224017 26 338 6.4 16.1 0.00 0.00 0.00 50 1010.3
20260905223516 26 338 4.8 14.5 0.00 0.00 0.00 50 1010.3
20260905223037 27 0 4.8 12.9 0.00 0.00 0.00 49 1010.4
20260905222517 27 23 4.8 11.3 0.00 0.00 0.00 50 1010.4
20260905222016 27 315 3.2 9.7 0.00 0.00 0.00 50 1010.3
20260905221517 27 0 4.8 16.1 0.00 0.00 0.00 49 1010.2
20260905221017 27 0 3.2 11.3 0.00 0.00 0.00 49 1010.0
20260905220516 27 45 3.2 9.7 0.00 0.00 0.00 49 1010.0
20260905220016 27 338 3.2 12.9 0.00 0.00 0.00 49 1010.0
20260905215559 27 23 3.2 14.5 0.00 0.00 0.00 48 1010.0
20260905215016 27 23 4.8 9.7 0.00 0.00 0.00 48 1010.0
20260905214518 27 0 3.2 8.0 0.00 0.00 0.00 49 1010.0
20260905214016 27 0 6.4 17.7 0.00 0.00 0.00 48 1010.0
20260905213517 27 23 4.8 14.5 0.00 0.00 0.00 48 1010.0
20260905213017 27 338 3.2 8.0 0.00 0.00 0.00 47 1010.0
20260905212517 27 0 6.4 16.1 0.00 0.00 0.00 47 1010.0
20260905212017 27 338 3.2 9.7 0.00 0.00 0.00 47 1010.0
20260905211516 27 0 3.2 12.9 0.00 0.00 0.00 47 1009.9
20260905211016 27 23 3.2 14.5 0.00 0.00 0.00 47 1010.0
20260905210516 27 338 4.8 12.9 0.00 0.00 0.00 47 1010.0
20260905210017 27 338 6.4 12.9 0.00 0.00 0.00 47 1010.0
20260905205518 27 45 4.8 17.7 0.00 0.00 0.00 47 1010.0
20260905205016 27 338 4.8 9.7 0.00 0.00 0.00 48 1009.9
20260905204516 28 0 4.8 14.5 0.00 0.00 0.00 48 1009.9
20260905204036 27 0 3.2 8.0 0.00 0.00 0.00 47 1009.9
20260905203516 27 0 4.8 9.7 0.00 0.00 0.00 48 1009.9
20260905203017 27 293 3.2 9.7 0.00 0.00 0.00 48 1009.8
20260905202536 27 338 1.6 8.0 0.00 0.00 0.00 48 1009.8
20260905202016 27 23 3.2 9.7 0.00 0.00 0.00 49 1009.8
20260905201516 27 338 3.2 8.0 0.00 0.00 0.00 49 1009.9
20260905201016 27 23 3.2 8.0 0.00 0.00 0.00 48 1009.8
20260905200536 27 293 3.2 12.9 0.00 0.00 0.00 48 1009.9
20260905200016 27 23 4.8 16.1 0.00 0.00 0.00 48 1009.8
20260905195537 27 338 4.8 9.7 0.00 0.00 0.00 47 1009.8
20260905195016 27 45 4.8 12.9 0.00 0.00 0.00 47 1009.9
20260905194516 27 0 4.8 11.3 0.00 0.00 0.00 48 1009.9
20260905194038 27 338 6.4 14.5 0.00 0.00 0.00 47 1010.0
20260905193516 28 315 9.7 19.3 0.00 0.00 0.00 45 1010.0
20260905193018 28 315 8.0 17.7 0.00 0.00 0.00 45 1009.9
20260905192538 28 315 8.0 19.3 0.00 0.00 0.00 45 1009.9
20260905192016 28 45 4.8 11.3 0.00 0.00 0.00 45 1010.0
20260905191516 28 338 4.8 16.1 0.00 0.00 0.00 45 1010.0
20260905191036 28 45 4.8 14.5 0.00 0.00 0.00 45 1010.0
20260905190516 28 315 3.2 6.4 0.00 0.00 0.00 46 1010.0
20260905190016 27 23 6.4 12.9 0.00 0.00 0.00 47 1010.1
20260905185517 27 0 4.8 11.3 0.00 0.00 0.00 48 1010.1
20260905185036 27 338 4.8 14.5 0.00 0.00 0.00 47 1010.2
20260905184516 27 0 4.8 14.5 0.00 0.00 0.00 47 1010.2
20260905184037 27 315 4.8 14.5 0.00 0.00 0.00 47 1010.3
20260905183536 28 270 4.8 14.5 0.00 0.00 0.00 47 1010.2
20260905183017 28 45 3.2 12.9 0.00 0.00 0.00 48 1010.2
20260905182516 27 293 4.8 14.5 0.00 0.00 0.00 49 1010.3
20260905182018 27 0 4.8 14.5 0.00 0.00 0.00 49 1010.4
20260905181537 27 0 6.4 16.1 0.00 0.00 0.00 49 1010.4
20260905181016 27 338 6.4 12.9 0.00 0.00 0.00 49 1010.4
20260905180516 27 315 6.4 19.3 0.00 0.00 0.00 48 1010.4
20260905180037 27 315 3.2 9.7 0.00 0.00 0.00 48 1010.4
20260905175516 27 315 4.8 16.1 0.00 0.00 0.00 48 1010.4
20260905175016 28 293 8.0 16.1 0.00 0.00 0.00 47 1010.4
20260905174516 27 270 6.4 17.7 0.00 0.00 0.00 48 1010.4
20260905174016 27 338 4.8 12.9 0.00 0.00 0.00 49 1010.5
20260905173517 27 315 9.7 17.7 0.00 0.00 0.00 48 1010.5
20260905173017 27 45 6.4 16.1 0.00 0.00 0.00 49 1010.5
20260905172516 27 0 6.4 17.7 0.00 0.00 0.00 47 1010.6
20260905172036 27 45 6.4 16.1 0.00 0.00 0.00 47 1010.6
20260905171518 27 0 4.8 12.9 0.00 0.00 0.00 47 1010.7
20260905171017 27 0 4.8 14.5 0.00 0.00 0.00 48 1010.7
20260905170516 27 45 6.4 17.7 0.00 0.00 0.00 48 1010.7
20260905170016 27 45 4.8 14.5 0.00 0.00 0.00 50 1010.7
20260905165516 27 0 6.4 16.1 0.00 0.00 0.00 50 1010.6
20260905165037 27 0 6.4 16.1 0.00 0.00 0.00 50 1010.7
20260905164516 27 315 6.4 16.1 0.00 0.00 0.00 51 1010.8
20260905164016 27 0 4.8 11.3 0.00 0.00 0.00 52 1010.9
20260905163516 27 45 8.0 20.9 0.00 0.00 0.00 52 1010.8
20260905163016 27 0 6.4 16.1 0.00 0.00 0.00 51 1010.9
20260905162516 27 0 6.4 12.9 0.00 0.00 0.00 51 1010.8
20260905162016 27 0 6.4 14.5 0.00 0.00 0.00 52 1010.8
20260905161516 27 0 6.4 14.5 0.00 0.00 0.00 53 1010.7
20260905161017 27 315 6.4 14.5 0.00 0.00 0.00 53 1010.8
20260905160516 27 293 4.8 19.3 0.00 0.00 0.00 50 1010.7
20260905160016 27 338 4.8 11.3 0.00 0.00 0.00 51 1010.7
20260905155518 27 293 4.8 14.5 0.00 0.00 0.00 51 1010.7
20260905155017 27 315 4.8 14.5 0.00 0.00 0.00 51 1010.6
20260905154516 27 0 6.4 14.5 0.00 0.00 0.00 51 1010.6
20260905154018 27 338 6.4 12.9 0.00 0.00 0.00 51 1010.6
20260905153517 26 45 6.4 16.1 0.00 0.00 0.00 53 1010.6
20260905153017 26 338 4.8 12.9 0.00 0.00 0.00 53 1010.7
20260905152516 26 0 4.8 14.5 0.00 0.00 0.00 52 1010.7
20260905152017 27 315 4.8 14.5 0.00 0.00 0.00 53 1010.7
20260905151516 26 315 4.8 14.5 0.00 0.00 0.00 53 1010.8
20260905151016 26 45 4.8 8.0 0.00 0.00 0.00 54 1010.7
20260905150516 26 0 6.4 17.7 0.00 0.00 0.00 55 1010.7
20260905150036 26 338 6.4 17.7 0.00 0.00 0.00 55 1010.7
20260905145516 26 23 6.4 16.1 0.00 0.00 0.00 54 1010.8
20260905145016 26 0 6.4 19.3 0.00 0.00 0.00 54 1010.7
20260905144516 26 338 6.4 16.1 0.00 0.00 0.00 55 1010.7
20260905144016 26 338 4.8 17.7 0.00 0.00 0.00 57 1010.6
20260905143516 26 315 4.8 11.3 0.00 0.00 0.00 58 1010.6
20260905143017 25 45 4.8 12.9 0.00 0.00 0.00 58 1010.6
20260905142516 25 270 3.2 9.7 0.00 0.00 0.00 59 1010.6
20260905142016 25 338 3.2 8.0 0.00 0.00 0.00 61 1010.5
20260905141517 25 23 4.8 11.3 0.00 0.00 0.00 62 1010.7
20260905141037 25 338 4.8 14.5 0.00 0.00 0.00 62 1010.6
20260905140517 25 338 4.8 9.7 0.00 0.00 0.00 63 1010.5
20260905140016 24 338 4.8 11.3 0.00 0.00 0.00 63 1010.5
20260905135516 24 315 6.4 14.5 0.00 0.00 0.00 63 1010.6
20260905135017 24 315 6.4 16.1 0.00 0.00 0.00 64 1010.5
20260905134517 24 338 4.8 16.1 0.00 0.00 0.00 63 1010.5
20260905134016 24 293 4.8 12.9 0.00 0.00 0.00 64 1010.5
20260905133516 24 315 6.4 14.5 0.00 0.00 0.00 64 1010.5
20260905133016 24 315 6.4 14.5 0.00 0.00 0.00 63 1010.5
20260905132537 24 293 6.4 12.9 0.00 0.00 0.00 64 1010.6
20260905132056 24 315 4.8 12.9 0.00 0.00 0.00 64 1010.6
20260905131538 24 0 6.4 12.9 0.00 0.00 0.00 64 1010.7
20260905131016 23 315 4.8 11.3 0.00 0.00 0.00 64 1010.7
20260905130515 23 315 4.8 11.3 0.00 0.00 0.00 64 1010.8
20260905130036 23 338 3.2 9.7 0.00 0.00 0.00 65 1010.9
20260905125516 23 0 3.2 6.4 0.00 0.00 0.00 65 1010.9
20260905125017 23 293 6.4 14.5 0.00 0.00 0.00 65 1011.0
20260905124517 23 315 6.4 12.9 0.00 0.00 0.00 65 1011.0
20260905124017 23 0 3.2 12.9 0.00 0.00 0.00 66 1011.0
20260905123536 23 315 3.2 12.9 0.00 0.00 0.00 67 1011.0
20260905123016 23 315 4.8 12.9 0.00 0.00 0.00 67 1011.2
20260905122536 23 315 6.4 14.5 0.00 0.00 0.00 67 1011.2
20260905122037 23 315 6.4 16.1 0.00 0.00 0.00 67 1011.3
20260905121515 23 315 4.8 12.9 0.00 0.00 0.00 67 1011.2
20260905121016 22 315 4.8 9.7 0.00 0.00 0.00 68 1011.0
20260905120515 22 315 6.4 12.9 0.00 0.00 0.00 68 1011.2
20260905120036 22 315 4.8 12.9 0.00 0.00 0.00 68 1011.1
20260905115516 22 315 3.2 9.7 0.00 0.00 0.00 68 1011.1
20260905115017 22 315 4.8 9.7 0.00 0.00 0.00 68 1011.1
20260905114517 22 338 3.2 8.0 0.00 0.00 0.00 68 1011.0
20260905114017 22 338 3.2 8.0 0.00 0.00 0.00 68 1010.9
20260905113516 22 315 4.8 12.9 0.00 0.00 0.00 68 1010.9
20260905113016 22 315 4.8 12.9 0.00 0.00 0.00 68 1010.9
20260905112515 22 338 3.2 11.3 0.00 0.00 0.00 68 1010.8
20260905112015 22 338 1.6 6.4 0.00 0.00 0.00 68 1010.7
20260905111516 22 23 1.6 8.0 0.00 0.00 0.00 68 1010.7
20260905111015 22 0 4.8 12.9 0.00 0.00 0.00 68 1010.7
20260905110517 22 338 3.2 9.7 0.00 0.00 0.00 68 1010.5
20260905110036 22 293 1.6 6.4 0.00 0.00 0.00 68 1010.4
20260905105515 22 0 3.2 8.0 0.00 0.00 0.00 67 1010.4
20260905105015 22 0 3.2 6.4 0.00 0.00 0.00 67 1010.3
20260905104517 22 315 4.8 9.7 0.00 0.00 0.00 67 1010.2
20260905104057 22 315 3.2 6.4 0.00 0.00 0.00 67 1010.3
20260905103517 22 338 1.6 4.8 0.00 0.00 0.00 66 1010.3
20260905103016 22 338 3.2 8.0 0.00 0.00 0.00 66 1010.2
20260905102516 22 338 3.2 12.9 0.00 0.00 0.00 66 1010.1
20260905102035 22 0 3.2 6.4 0.00 0.00 0.00 66 1010.0
20260905101516 22 0 1.6 6.4 0.00 0.00 0.00 66 1010.1
20260905101015 22 0 1.6 6.4 0.00 0.00 0.00 66 1010.0
20260905100515 22 0 3.2 12.9 0.00 0.00 0.00 65 1010.0
20260905100015 22 338 3.2 9.7 0.00 0.00 0.00 65 1010.1
20260905095516 22 0 4.8 12.9 0.00 0.00 0.00 65 1010.1
20260905095015 23 338 3.2 8.0 0.00 0.00 0.00 64 1010.1
20260905094515 23 338 3.2 6.4 0.00 0.00 0.00 65 1010.1
20260905094016 23 338 3.2 8.0 0.00 0.00 0.00 65 1010.0
20260905093515 23 0 4.8 12.9 0.00 0.00 0.00 65 1009.9
20260905093016 23 315 3.2 6.4 0.00 0.00 0.00 65 1009.9
20260905092516 23 338 3.2 8.0 0.00 0.00 0.00 64 1009.9
20260905092015 23 338 3.2 6.4 0.00 0.00 0.00 64 1009.8
20260905091517 23 338 3.2 11.3 0.00 0.00 0.00 63 1009.8
20260905091016 23 338 3.2 8.0 0.00 0.00 0.00 63 1009.9
20260905090515 23 0 3.2 6.4 0.00 0.00 0.00 63 1009.8
20260905090015 23 315 4.8 12.9 0.00 0.00 0.00 63 1009.8
20260905085515 23 0 4.8 12.9 0.00 0.00 0.00 63 1009.8
20260905085015 23 338 4.8 9.7 0.00 0.00 0.00 62 1009.8
20260905084535 23 338 3.2 9.7 0.00 0.00 0.00 62 1009.8
20260905084015 23 338 4.8 12.9 0.00 0.00 0.00 62 1009.8
20260905083515 23 0 4.8 14.5 0.00 0.00 0.00 62 1009.9
20260905083015 23 338 3.2 6.4 0.00 0.00 0.00 61 1009.9
20260905082515 23 338 3.2 11.3 0.00 0.00 0.00 61 1009.8
20260905082016 23 338 4.8 11.3 0.00 0.00 0.00 60 1009.8
20260905081515 23 338 4.8 11.3 0.00 0.00 0.00 60 1009.8
20260905081015 23 338 6.4 12.9 0.00 0.00 0.00 60 1009.8
20260905080517 23 45 4.8 16.1 0.00 0.00 0.00 59 1009.8
20260905080017 23 338 3.2 8.0 0.00 0.00 0.00 59 1009.9
20260905075517 24 315 4.8 12.9 0.00 0.00 0.00 59 1009.8
20260905075017 24 338 4.8 14.5 0.00 0.00 0.00 59 1009.9
20260905074517 24 0 4.8 12.9 0.00 0.00 0.00 59 1009.9
20260905074019 24 338 3.2 8.0 0.00 0.00 0.00 59 1009.9
20260905073517 24 315 3.2 14.5 0.00 0.00 0.00 59 1009.9